CXO

Last updated on Wed Oct 29 2025 00:03:35 GMT+0000 (Coordinated Universal Time)

1 25867U 99040B 25304.30481514 .00000945 00000+0 00000+0 0 9996 2 25867 52.1821 124.1649 8211417 310.5885 0.2547 0.37801472 16456
UTC large
Height (km)
Speed (km/s)
/
Latitude / Longitude
Inclination (degrees)
Orbital Period (minutes)
Azimuth
Elevation
Range (km)
Doppler Factor

Next 0 passes for location: London (51.5072 / 0.1276)

Sorry there are no passes over London.